Terug naar catalogus

STARLINK-31563

ActiefCommunicatieVLEO
NORAD 59190·PAYLOAD·🇺🇸 United States

Gelanceerd Mar 10, 2024 vanaf Cape Canaveral Space Force Station

Loading…

Volgende Passages (komende 24 uur)

TLE

VersSource: CelesTrak SupGP

Epoch: Sep 15, 2026, 02:47 UTC

1 59190C 24045N   26258.11645833  .00030866  00000+0  11179-2 0  2584
2 59190  43.0002 102.5582 0001502 272.7119 103.2363 15.27565568    14

Volg STARLINK-31563 in realtime met AllMySat

Download on the App Store